West Tisbury, MA

5:45 AM EDT on August 25, 2016 (GMT -0400)
Martha's Vineyard

Weather History for KMVY - March, 2013

Change the Weather History Date:

Sunday, March 10, 2013

  Actual Average Record
Temperature  
Mean Temperature 36 °F -  
Max Temperature 44 °F 42 °F 68 °F (2016)
Min Temperature 28 °F 26 °F 11 °F (1972)
Degree Days  
Heating Degree Days 29    
Moisture  
Dew Point 31 °F    
Average Humidity 79    
Maximum Humidity 100    
Minimum Humidity 60    
Precipitation  
Precipitation 0.00 in - - ()
Sea Level Pressure  
Sea Level Pressure 30.35 in    
Wind  
Wind Speed 8 mph (East)    
Max Wind Speed 15 mph    
Max Gust Speed 20 mph    
Visibility 10 miles    
Events      
Averages and records for this station are not official NWS values.
T = Trace of Precipitation, MM = Missing Value Source: NWS Daily Summary

Daily Weather History Graph

Daily Weather History Graph

Search for Another Location

Airport or City:

Trip Planner

Search our weather history database for the weather conditions in past years. The results will help you decide how hot, cold, wet, or windy it might be!

Date:

Astronomy

Mar. 10, 2013 Rise Set
Actual Time 7:02 AM EDT 6:43 PM EDT
Civil Twilight 6:34 AM EDT 7:11 PM EDT
Nautical Twilight 6:02 AM EDT 7:43 PM EDT
Astronomical Twilight 5:30 AM EDT 8:15 PM EDT
Moon 6:00 AM EDT (3/10) 5:48 PM EDT (3/10)
Length of Visible Light 12h 36m
Length of Day
11h 41m
Waning Crescent, 2% of the Moon is Illuminated
Mar 10
Waning Crescent
Mar 11
New
Mar 19
First Quarter
Mar 27
Full
Apr 3
Last Quarter

Hourly Weather History & Observations

Time (EDT) Temp. Windchill Dew Point Humidity Pressure Visibility Wind Dir Wind Speed Gust Speed Precip Events Conditions
12:53 AM 32.0 °F 24.8 °F 30.0 °F 92% 30.31 in 10.0 mi NNE 8.1 mph - N/A   Clear
1:53 AM 30.9 °F 25.2 °F 30.0 °F 96% 30.31 in 10.0 mi North 5.8 mph - N/A   Clear
3:21 AM 30.2 °F 23.4 °F 30.2 °F 100% 30.31 in 10.0 mi North 6.9 mph - N/A   Mostly Cloudy
3:53 AM 34.0 °F 28.0 °F 32.0 °F 92% 30.31 in 10.0 mi North 6.9 mph - N/A   Overcast
4:53 AM 36.0 °F 27.5 °F 30.9 °F 82% 30.32 in 10.0 mi NNE 12.7 mph 18.4 mph N/A   Overcast
5:53 AM 36.0 °F 28.0 °F 30.9 °F 82% 30.34 in 10.0 mi NNE 11.5 mph - N/A   Overcast
6:53 AM 36.0 °F 26.7 °F 30.0 °F 79% 30.34 in 10.0 mi NE 15.0 mph - N/A   Overcast
8:53 AM 37.9 °F 32.1 °F 30.9 °F 76% 30.36 in 10.0 mi NNE 8.1 mph 19.6 mph N/A   Overcast
9:53 AM 39.0 °F 31.8 °F 30.9 °F 73% 30.37 in 10.0 mi NE 11.5 mph - N/A   Overcast
10:53 AM 39.9 °F 32.9 °F 30.9 °F 70% 30.38 in 10.0 mi ENE 11.5 mph - N/A   Overcast
11:53 AM 41.0 °F 34.3 °F 30.9 °F 67% 30.38 in 10.0 mi NE 11.5 mph 17.3 mph N/A   Overcast
12:53 PM 42.1 °F 35.2 °F 30.9 °F 65% 30.38 in 10.0 mi East 12.7 mph - N/A   Mostly Cloudy
1:02 PM 42.8 °F 36.6 °F 30.2 °F 61% 30.37 in 10.0 mi ENE 11.5 mph - N/A   Scattered Clouds
1:17 PM 42.8 °F 37.0 °F 30.2 °F 61% 30.37 in 10.0 mi East 10.4 mph - N/A   Mostly Cloudy
1:53 PM 44.1 °F 38.6 °F 30.9 °F 60% 30.36 in 10.0 mi ENE 10.4 mph - N/A   Mostly Cloudy
2:05 PM 42.8 °F 36.6 °F 30.2 °F 61% 30.35 in 10.0 mi NE 11.5 mph - N/A   Scattered Clouds
2:53 PM 43.0 °F 37.7 °F 30.9 °F 62% 30.35 in 10.0 mi East 9.2 mph - N/A   Scattered Clouds
3:53 PM 43.0 °F 37.7 °F 32.0 °F 65% 30.34 in 10.0 mi East 9.2 mph - N/A   Clear
4:53 PM 41.0 °F 35.8 °F 30.9 °F 67% 30.34 in 10.0 mi East 8.1 mph - N/A   Clear
5:53 PM 39.0 °F 34.0 °F 30.9 °F 73% 30.35 in 10.0 mi East 6.9 mph - N/A   Clear
6:53 PM 35.1 °F 30.1 °F 30.0 °F 82% 30.35 in 10.0 mi ESE 5.8 mph - N/A   Clear
7:53 PM 30.9 °F - 28.9 °F 92% 30.36 in 10.0 mi Calm Calm - N/A   Clear
8:53 PM 28.9 °F - 27.0 °F 92% 30.37 in 10.0 mi Calm Calm - N/A   Clear
9:43 PM 33.8 °F 29.6 °F 30.2 °F 87% 30.35 in 10.0 mi ESE 4.6 mph - N/A   Mostly Cloudy
9:53 PM 34.0 °F 29.8 °F 30.9 °F 89% 30.35 in 10.0 mi SE 4.6 mph - N/A   Mostly Cloudy
10:11 PM 33.8 °F 28.6 °F 30.2 °F 87% 30.35 in 10.0 mi SE 5.8 mph - N/A   Scattered Clouds
10:53 PM 35.1 °F 32.2 °F 30.9 °F 85% 30.35 in 10.0 mi SSE 3.5 mph - N/A   Clear
11:21 PM 35.6 °F 32.8 °F 30.2 °F 81% 30.35 in 10.0 mi SE 3.5 mph - N/A   Mostly Cloudy
11:53 PM 35.1 °F 30.1 °F 32.0 °F 89% 30.35 in 10.0 mi SSE 5.8 mph - N/A   Mostly Cloudy
12:16 AM 35.6 °F 31.7 °F 32.0 °F 87% 30.34 in 10.0 mi SSE 4.6 mph - N/A   Scattered Clouds
12:33 AM 35.6 °F 32.8 °F 32.0 °F 87% 30.33 in 10.0 mi South 3.5 mph - N/A   Mostly Cloudy
12:53 AM 36.0 °F 32.1 °F 32.0 °F 86% 30.33 in 10.0 mi South 4.6 mph - N/A   Overcast